EW4536 Weather Reports


Display with metric or nautical units.
time (UTC)temp
F
wind
direction
speed
MPH
gust
MPH
rain 1hr
in
rain 24hr
in
rain mn
in
humidity
%
barometer
mb
20260508051603 75 265 0.0 2.0 0.00 0.00 0.00 86 1013.1
20260508050029 75 259 1.0 3.0 0.00 0.00 0.00 86 1013.2
20260508044605 76 263 1.0 6.0 0.00 0.00 0.00 85 1013.0
20260508043041 76 242 0.0 4.0 0.00 0.00 0.00 84 1013.0
20260508041504 77 290 1.0 7.0 0.00 0.00 0.00 83 1013.1
20260508040043 77 292 3.0 8.0 0.00 0.00 0.00 83 1013.1
20260508034504 77 275 1.0 7.0 0.00 0.00 0.00 83 1013.1
20260508033033 77 298 2.0 6.0 0.00 0.00 0.00 82 1013.1
20260508031605 76 270 3.0 7.0 0.00 0.00 0.00 82 1013.0
20260508030032 76 276 1.0 6.0 0.00 0.00 0.00 82 1013.0
20260508024620 76 273 2.0 4.0 0.00 0.00 0.00 81 1012.8
20260508023024 77 253 1.0 6.0 0.00 0.00 0.00 80 1012.7
20260508021550 77 248 1.0 4.0 0.00 0.00 0.00 79 1012.6
20260508020013 78 260 1.0 6.0 0.00 0.00 0.00 77 1012.7
20260508014554 78 267 3.0 8.0 0.00 0.00 0.00 76 1012.6
20260508013012 79 257 2.0 5.0 0.00 0.00 0.00 74 1012.4
20260508011558 79 289 2.0 9.0 0.00 0.00 0.00 73 1012.3
20260508010021 80 271 1.0 5.0 0.00 0.00 0.00 72 1012.3
20260508004551 80 285 3.0 8.0 0.00 0.00 0.00 70 1012.1
20260508003013 81 254 3.0 10.0 0.00 0.00 0.00 68 1011.7
20260508001552 82 264 4.0 6.0 0.00 0.00 0.00 66 1011.4
20260508000001 82 262 3.0 9.0 0.00 0.00 0.00 64 1011.5
20260507234536 83 245 4.0 11.0 0.00 0.00 0.00 62 1011.6
20260507233018 84 277 5.0 14.0 0.00 0.00 0.00 60 1011.6
20260507231542 85 262 5.0 11.0 0.00 0.00 0.00 59 1011.7
20260507230021 86 248 4.0 12.0 0.00 0.00 0.00 56 1011.4
20260507224551 86 234 6.0 11.0 0.00 0.00 0.00 55 1011.0
20260507223017 87 263 4.0 13.0 0.00 0.00 0.00 54 1010.8
20260507221551 87 257 5.0 13.0 0.00 0.00 0.00 52 1010.7
20260507220017 89 257 6.0 14.0 0.00 0.00 0.00 49 1010.7
20260507214556 89 271 8.0 15.0 0.00 0.00 0.00 48 1010.9
20260507213029 89 250 8.0 15.0 0.00 0.00 0.00 49 1010.5
20260507211612 88 234 4.0 16.0 0.00 0.00 0.00 50 1010.6
20260507210027 86 239 6.0 11.0 0.00 0.00 0.00 55 1010.4
20260507204603 84 286 5.0 11.0 0.00 0.00 0.00 59 1010.8
20260507203025 83 292 4.0 14.0 0.00 0.00 0.00 61 1011.7
20260507201558 83 265 4.0 10.0 0.00 0.00 0.00 61 1012.2
20260507200021 83 285 3.0 9.0 0.00 0.00 0.00 61 1012.8
20260507194552 82 273 2.0 5.0 0.00 0.00 0.00 63 1012.9
20260507193015 82 305 5.0 9.0 0.00 0.00 0.00 61 1013.4
20260507191601 82 242 4.0 12.0 0.00 0.00 0.00 60 1013.2
20260507190022 83 260 4.0 10.0 0.00 0.00 0.00 59 1013.2
20260507184602 84 262 5.0 14.0 0.00 0.00 0.00 56 1013.5
20260507183043 84 306 10.0 16.0 0.00 0.00 0.00 56 1014.5
20260507181611 84 288 5.0 12.0 0.00 0.00 0.00 59 1014.8
20260507180037 83 229 7.0 15.0 0.00 0.00 0.00 58 1015.0
20260507174610 84 264 9.0 13.0 0.00 0.00 0.00 57 1015.1
20260507173030 83 296 11.0 16.0 0.00 0.00 0.00 60 1015.3
20260507171608 81 311 5.0 13.0 0.00 0.00 0.00 63 1015.3
20260507170046 80 300 8.0 14.0 0.00 0.00 0.00 65 1015.5
20260507164611 82 259 3.0 11.0 0.00 0.00 0.00 63 1015.2
20260507163045 82 309 6.0 12.0 0.00 0.00 0.00 61 1015.0
20260507161508 82 269 6.0 12.0 0.00 0.00 0.00 62 1015.2
20260507160044 83 355 6.0 17.0 0.00 0.00 0.00 60 1015.5
20260507154510 83 312 8.0 16.0 0.00 0.00 0.00 59 1015.6
20260507153047 83 302 5.0 12.0 0.00 0.00 0.00 59 1015.7
20260507151511 81 281 8.0 13.0 0.00 0.00 0.00 60 1015.7
20260507150050 81 288 8.0 13.0 0.00 0.00 0.00 60 1015.3
20260507144512 80 290 5.0 10.0 0.00 0.00 0.00 60 1015.1
20260507143059 81 263 6.0 12.0 0.00 0.00 0.00 58 1014.6
20260507141513 79 292 5.0 11.0 0.00 0.00 0.00 65 1014.3
20260507140046 78 259 4.0 8.0 0.00 0.00 0.00 68 1014.5
20260507134509 76 285 3.0 10.0 0.00 0.00 0.00 73 1014.5
20260507133045 74 273 1.0 4.0 0.00 0.00 0.00 78 1014.5
20260507131502 72 269 2.0 4.0 0.00 0.00 0.00 85 1014.7
20260507130058 70 19 0.0 0.0 0.00 0.00 0.00 91 1014.8
20260507124505 68 188 0.0 0.0 0.00 0.00 0.00 93 1014.6
20260507123050 68 186 0.0 2.0 0.00 0.00 0.00 93 1014.7
20260507121518 67 186 0.0 2.0 0.00 0.00 0.00 94 1014.8
20260507120059 66 190 0.0 2.0 0.00 0.00 0.00 94 1014.6
20260507114526 65 191 0.0 0.0 0.00 0.00 0.00 94 1014.4
20260507113105 65 191 0.0 0.0 0.00 0.00 0.00 94 1014.1
20260507111533 65 191 0.0 2.0 0.00 0.00 0.00 93 1014.1
20260507110107 64 191 0.0 1.0 0.00 0.00 0.00 93 1014.0
20260507104543 64 191 1.0 2.0 0.00 0.00 0.00 93 1013.9
20260507103130 65 190 0.0 0.0 0.00 0.00 0.00 92 1013.6
20260507101529 65 190 0.0 1.0 0.00 0.00 0.00 92 1013.7
20260507100111 66 249 0.0 2.0 0.00 0.00 0.00 92 1013.7
20260507094537 67 250 0.0 2.0 0.00 0.00 0.00 90 1013.7
20260507093108 67 249 0.0 2.0 0.00 0.00 0.00 90 1013.7
20260507091544 67 255 0.0 3.0 0.00 0.00 0.00 89 1013.4
20260507090011 67 261 0.0 3.0 0.00 0.00 0.00 88 1013.3
20260507084603 67 242 1.0 4.0 0.00 0.00 0.00 89 1013.0
20260507083018 67 193 0.0 2.0 0.00 0.00 0.00 87 1012.6
20260507081550 67 243 0.0 2.0 0.00 0.00 0.00 88 1012.8
20260507080024 67 272 0.0 4.0 0.00 0.00 0.00 89 1012.7
20260507074610 67 275 0.0 2.0 0.00 0.00 0.00 90 1012.8
20260507073029 66 150 0.0 2.0 0.00 0.00 0.00 90 1013.2
20260507071613 66 150 0.0 2.0 0.00 0.00 0.00 88 1013.2
20260507070029 67 150 0.0 0.0 0.00 0.00 0.00 87 1013.5
20260507064603 67 150 0.0 2.0 0.00 0.00 0.00 87 1013.5
20260507063020 67 150 0.0 2.0 0.00 0.00 0.00 86 1013.7
20260507061602 67 150 0.0 2.0 0.00 0.00 0.00 86 1013.8
20260507060022 67 150 1.0 2.0 0.00 0.00 0.00 85 1014.0
20260507054615 68 150 0.0 0.0 0.00 0.00 0.00 84 1014.1
20260507053025 68 150 0.0 0.0 0.00 0.00 0.00 83 1014.2